Location: Kuffner-Sternwarte
(48.2130°N, 16.2960°E)
Time: 11:23:22
(UTC+01:00)

COROT - Pass Details

Date: 22 March 2017
Orbit: 602 x 887 km, 90.0° (Epoch: 20 November)

Event Time Altitude Azimuth Distance (km) Brightness Sun altitude
Rises 01:30:11 0° 354° (N) 3,021 9.8 -37.5°
Reaches altitude 10° 01:32:28 10° 347° (NNW) 2,143 8.8 -37.3°
Enters shadow 01:32:53 12° 345° (NNW) 1,993 8.6 -37.3°
